Time,TemperatureF,DewpointF,PressureIn,WindDirection,WindDirectionDegrees,WindSpeedMPH,WindSpeedGustMPH,Humidity,HourlyPrecipIn,Conditions,Clouds,dailyrainin,SoftwareType,DateUTC
2013-04-14 00:00:00,52.2,24.5,30.13,East,90,0.4,3.1,34,2.59,,,0.00,WUHU216HW,2013-04-14 04:00:00,
2013-04-14 00:05:00,51.8,24.8,30.13,SSE,158,0.7,2.9,35,2.59,,,0.00,WUHU216HW,2013-04-14 04:05:00,
2013-04-14 00:10:00,51.8,25.6,30.13,West,270,0.4,1.8,36,2.59,,,0.00,WUHU216HW,2013-04-14 04:10:00,
2013-04-14 00:15:00,51.5,25.2,30.13,NE,45,0.4,0.9,36,2.59,,,0.00,WUHU216HW,2013-04-14 04:15:00,
2013-04-14 00:20:00,51.5,25.2,30.13,West,270,1.3,1.6,36,2.59,,,0.00,WUHU216HW,2013-04-14 04:20:00,
2013-04-14 00:25:00,51.5,25.2,30.14,West,270,0.7,1.8,36,2.59,,,0.00,WUHU216HW,2013-04-14 04:25:00,
2013-04-14 00:30:00,51.5,25.2,30.14,West,270,0.9,2.5,36,2.59,,,0.00,WUHU216HW,2013-04-14 04:30:00,
2013-04-14 00:35:00,51.5,25.2,30.14,WNW,293,0.4,2.5,36,2.59,,,0.00,WUHU216HW,2013-04-14 04:35:00,
2013-04-14 00:40:00,51.5,25.2,30.14,West,270,1.8,2.5,36,2.59,,,0.00,WUHU216HW,2013-04-14 04:40:00,
2013-04-14 00:45:00,51.5,25.2,30.14,West,270,2.2,2.2,36,2.59,,,0.00,WUHU216HW,2013-04-14 04:45:00,
2013-04-14 00:50:00,51.5,25.9,30.15,WNW,293,1.8,2.5,37,2.59,,,0.00,WUHU216HW,2013-04-14 04:50:00,
2013-04-14 00:55:00,51.1,25.6,30.15,WNW,293,1.1,2.5,37,2.59,,,0.00,WUHU216HW,2013-04-14 04:55:00,
2013-04-14 01:00:00,50.9,25.4,30.15,West,270,0.7,1.8,37,2.59,,,0.00,WUHU216HW,2013-04-14 05:00:00,
2013-04-14 01:05:00,50.9,25.4,30.15,WNW,293,2.2,2.2,37,2.59,,,0.00,WUHU216HW,2013-04-14 05:05:00,
2013-04-14 01:10:00,50.9,25.4,30.16,WSW,248,1.6,4.3,37,2.59,,,0.00,WUHU216HW,2013-04-14 05:10:00,
2013-04-14 01:15:00,50.8,25.9,30.16,SSW,203,0.7,4.3,38,2.59,,,0.00,WUHU216HW,2013-04-14 05:15:00,
2013-04-14 01:20:00,50.8,25.9,30.15,ENE,68,0.4,3.6,38,2.59,,,0.00,WUHU216HW,2013-04-14 05:20:00,
2013-04-14 01:25:00,50.8,26.7,30.15,WNW,293,4.7,4.7,39,2.59,,,0.00,WUHU216HW,2013-04-14 05:25:00,
2013-04-14 01:30:00,50.8,26.7,30.15,NW,315,0.4,4.7,39,2.59,,,0.00,WUHU216HW,2013-04-14 05:30:00,
2013-04-14 01:35:00,50.8,26.7,30.16,SW,225,1.1,4.7,39,2.59,,,0.00,WUHU216HW,2013-04-14 05:35:00,
2013-04-14 01:40:00,50.6,26.5,30.15,West,270,1.1,4.0,39,2.59,,,0.00,WUHU216HW,2013-04-14 05:40:00,
2013-04-14 01:45:00,50.4,27.0,30.15,SW,225,0.4,4.0,40,2.59,,,0.00,WUHU216HW,2013-04-14 05:45:00,
2013-04-14 01:50:00,50.2,26.8,30.15,NW,315,0.4,4.0,40,2.59,,,0.00,WUHU216HW,2013-04-14 05:50:00,
2013-04-14 01:55:00,50.2,26.8,30.15,WSW,248,0.0,1.1,40,2.59,,,0.00,WUHU216HW,2013-04-14 05:55:00,
2013-04-14 02:00:00,50.0,25.9,30.15,WNW,293,1.1,1.1,39,2.59,,,0.00,WUHU216HW,2013-04-14 06:00:00,
2013-04-14 02:05:00,49.9,25.8,30.15,WNW,293,1.8,1.8,39,2.59,,,0.00,WUHU216HW,2013-04-14 06:05:00,
2013-04-14 02:10:00,49.5,25.5,30.15,WNW,293,2.5,2.5,39,2.59,,,0.00,WUHU216HW,2013-04-14 06:10:00,
2013-04-14 02:15:00,49.3,26.0,30.15,WNW,293,0.4,2.5,40,2.59,,,0.00,WUHU216HW,2013-04-14 06:15:00,
2013-04-14 02:20:00,49.0,25.7,30.15,NNW,338,0.2,2.5,40,2.59,,,0.00,WUHU216HW,2013-04-14 06:20:00,
2013-04-14 02:25:00,48.6,25.4,30.15,North,0,0.0,0.4,40,2.59,,,0.00,WUHU216HW,2013-04-14 06:25:00,
2013-04-14 02:30:00,48.2,25.0,30.15,SW,225,0.4,0.9,40,2.59,,,0.00,WUHU216HW,2013-04-14 06:30:00,
2013-04-14 02:35:00,47.9,25.2,30.14,SSE,158,0.0,0.9,41,2.59,,,0.00,WUHU216HW,2013-04-14 06:35:00,
2013-04-14 02:40:00,47.7,25.1,30.14,WSW,248,0.0,0.7,41,2.59,,,0.00,WUHU216HW,2013-04-14 06:40:00,
2013-04-14 02:45:00,47.5,25.5,30.14,ENE,68,0.2,0.7,42,2.59,,,0.00,WUHU216HW,2013-04-14 06:45:00,
2013-04-14 02:50:00,47.2,25.1,30.14,NNE,23,0.7,1.1,42,2.59,,,0.00,WUHU216HW,2013-04-14 06:50:00,
2013-04-14 02:55:00,47.0,25.5,30.14,West,270,1.3,2.2,43,2.59,,,0.00,WUHU216HW,2013-04-14 06:55:00,
2013-04-14 03:00:00,47.0,26.6,30.14,NNW,338,0.4,2.2,45,2.59,,,0.00,WUHU216HW,2013-04-14 07:00:00,
2013-04-14 03:05:00,47.2,26.7,30.14,South,180,1.6,1.8,45,2.59,,,0.00,WUHU216HW,2013-04-14 07:05:00,
2013-04-14 03:10:00,47.3,26.9,30.14,North,0,0.0,1.6,45,2.59,,,0.00,WUHU216HW,2013-04-14 07:10:00,
2013-04-14 03:15:00,47.3,26.9,30.14,North,0,0.0,1.6,45,2.59,,,0.00,WUHU216HW,2013-04-14 07:15:00,
2013-04-14 03:20:00,47.3,26.9,30.14,North,0,0.0,0.0,45,2.59,,,0.00,WUHU216HW,2013-04-14 07:20:00,
2013-04-14 03:25:00,47.3,26.9,30.14,SW,225,0.0,0.4,45,2.59,,,0.00,WUHU216HW,2013-04-14 07:25:00,
2013-04-14 03:30:00,47.2,26.7,30.14,South,180,2.5,2.5,45,2.59,,,0.00,WUHU216HW,2013-04-14 07:30:00,
2013-04-14 03:35:00,47.0,26.6,30.14,South,180,1.8,2.5,45,2.59,,,0.00,WUHU216HW,2013-04-14 07:35:00,
2013-04-14 03:40:00,46.8,27.0,30.14,South,180,1.8,2.5,46,2.59,,,0.00,WUHU216HW,2013-04-14 07:40:00,
2013-04-14 03:45:00,46.6,26.8,30.14,South,180,2.5,2.5,46,2.59,,,0.00,WUHU216HW,2013-04-14 07:45:00,
2013-04-14 03:50:00,46.4,27.2,30.14,SSW,203,0.2,2.7,47,2.59,,,0.00,WUHU216HW,2013-04-14 07:50:00,
2013-04-14 03:55:00,46.4,27.2,30.15,SSW,203,1.1,2.7,47,2.59,,,0.00,WUHU216HW,2013-04-14 07:55:00,
2013-04-14 04:00:00,46.4,27.2,30.15,WNW,293,0.0,2.0,47,2.59,,,0.00,WUHU216HW,2013-04-14 08:00:00,
2013-04-14 04:05:00,46.4,27.2,30.15,SSW,203,2.9,3.1,47,2.59,,,0.00,WUHU216HW,2013-04-14 08:05:00,
2013-04-14 04:10:00,46.4,27.7,30.14,SSW,203,0.7,3.6,48,2.59,,,0.00,WUHU216HW,2013-04-14 08:10:00,
2013-04-14 04:15:00,46.4,27.7,30.14,SW,225,0.4,3.6,48,2.59,,,0.00,WUHU216HW,2013-04-14 08:15:00,
2013-04-14 04:20:00,46.6,27.9,30.15,SSW,203,1.1,2.7,48,2.59,,,0.00,WUHU216HW,2013-04-14 08:20:00,
2013-04-14 04:25:00,47.0,28.2,30.15,NNE,23,1.1,1.8,48,2.59,,,0.00,WUHU216HW,2013-04-14 08:25:00,
2013-04-14 04:30:00,47.3,28.0,30.14,WNW,293,0.4,1.8,47,2.59,,,0.00,WUHU216HW,2013-04-14 08:30:00,
2013-04-14 04:35:00,47.5,28.2,30.14,SSW,203,1.1,1.3,47,2.59,,,0.00,WUHU216HW,2013-04-14 08:35:00,
2013-04-14 04:40:00,47.5,27.6,30.15,SW,225,1.3,2.0,46,2.59,,,0.00,WUHU216HW,2013-04-14 08:40:00,
2013-04-14 04:45:00,47.5,27.6,30.15,NE,45,0.4,2.0,46,2.59,,,0.00,WUHU216HW,2013-04-14 08:45:00,
2013-04-14 04:50:00,47.3,28.0,30.15,North,0,0.7,2.9,47,2.59,,,0.00,WUHU216HW,2013-04-14 08:50:00,
2013-04-14 04:55:00,47.2,27.8,30.15,SE,135,0.7,2.9,47,2.59,,,0.00,WUHU216HW,2013-04-14 08:55:00,
2013-04-14 05:00:00,47.2,27.8,30.16,SSE,158,1.8,2.0,47,2.59,,,0.00,WUHU216HW,2013-04-14 09:00:00,
2013-04-14 05:05:00,47.3,28.0,30.16,SSE,158,1.1,2.0,47,2.59,,,0.00,WUHU216HW,2013-04-14 09:05:00,
2013-04-14 05:10:00,47.3,27.5,30.16,East,90,2.5,2.9,46,2.59,,,0.00,WUHU216HW,2013-04-14 09:10:00,
2013-04-14 05:15:00,47.5,27.6,30.16,West,270,1.1,2.9,46,2.59,,,0.00,WUHU216HW,2013-04-14 09:15:00,
2013-04-14 05:20:00,47.5,27.6,30.16,SSW,203,0.7,2.5,46,2.59,,,0.00,WUHU216HW,2013-04-14 09:20:00,
2013-04-14 05:25:00,47.7,27.8,30.16,NNW,338,0.9,2.2,46,2.59,,,0.00,WUHU216HW,2013-04-14 09:25:00,
2013-04-14 05:30:00,47.9,27.9,30.16,SE,135,1.3,2.2,46,2.59,,,0.00,WUHU216HW,2013-04-14 09:30:00,
2013-04-14 05:35:00,47.7,27.8,30.16,SSE,158,1.6,1.8,46,2.59,,,0.00,WUHU216HW,2013-04-14 09:35:00,
2013-04-14 05:40:00,47.9,27.9,30.16,SSE,158,0.7,3.4,46,2.59,,,0.00,WUHU216HW,2013-04-14 09:40:00,
2013-04-14 05:45:00,47.9,27.9,30.16,North,0,0.0,3.4,46,2.59,,,0.00,WUHU216HW,2013-04-14 09:45:00,
2013-04-14 05:50:00,48.1,28.1,30.16,North,0,0.0,0.7,46,2.59,,,0.00,WUHU216HW,2013-04-14 09:50:00,
2013-04-14 05:55:00,48.1,28.1,30.17,North,0,0.0,0.0,46,2.59,,,0.00,WUHU216HW,2013-04-14 09:55:00,
2013-04-14 06:00:00,47.9,27.9,30.17,ENE,68,2.2,4.7,46,2.59,,,0.00,WUHU216HW,2013-04-14 10:00:00,
2013-04-14 06:05:00,46.6,28.5,30.18,NE,45,3.6,5.8,49,2.59,,,0.00,WUHU216HW,2013-04-14 10:05:00,
2013-04-14 06:10:00,45.0,28.0,30.18,ENE,68,1.1,5.8,51,2.59,,,0.00,WUHU216HW,2013-04-14 10:10:00,
2013-04-14 06:15:00,44.1,28.0,30.19,East,90,1.8,4.5,53,2.59,,,0.00,WUHU216HW,2013-04-14 10:15:00,
2013-04-14 06:20:00,43.6,27.6,30.19,ENE,68,2.5,4.5,53,2.59,,,0.00,WUHU216HW,2013-04-14 10:20:00,
2013-04-14 06:25:00,43.4,27.4,30.19,NE,45,3.6,4.0,53,2.59,,,0.00,WUHU216HW,2013-04-14 10:25:00,
2013-04-14 06:30:00,43.6,28.5,30.20,NE,45,3.4,4.0,55,2.59,,,0.00,WUHU216HW,2013-04-14 10:30:00,
2013-04-14 06:35:00,43.4,29.1,30.20,NE,45,2.7,4.0,57,2.59,,,0.00,WUHU216HW,2013-04-14 10:35:00,
2013-04-14 06:40:00,43.2,29.3,30.20,North,0,5.4,6.0,58,2.59,,,0.00,WUHU216HW,2013-04-14 10:40:00,
2013-04-14 06:45:00,42.8,29.9,30.20,NNE,23,7.2,7.2,60,2.59,,,0.00,WUHU216HW,2013-04-14 10:45:00,
2013-04-14 06:50:00,42.3,30.6,30.20,NE,45,4.5,7.6,63,2.59,,,0.00,WUHU216HW,2013-04-14 10:50:00,
2013-04-14 06:55:00,41.9,30.6,30.21,NNE,23,1.8,7.6,64,2.59,,,0.00,WUHU216HW,2013-04-14 10:55:00,
2013-04-14 07:00:00,41.8,30.9,30.21,North,0,0.7,6.9,65,2.59,,,0.00,WUHU216HW,2013-04-14 11:00:00,
2013-04-14 07:05:00,41.8,30.9,30.22,North,0,0.0,1.8,65,2.59,,,0.00,WUHU216HW,2013-04-14 11:05:00,
2013-04-14 07:10:00,41.8,31.2,30.22,North,0,0.0,0.7,66,2.59,,,0.00,WUHU216HW,2013-04-14 11:10:00,
2013-04-14 07:15:00,41.4,31.2,30.22,NE,45,7.6,7.6,67,2.59,,,0.00,WUHU216HW,2013-04-14 11:15:00,
2013-04-14 07:20:00,41.2,31.1,30.23,NE,45,6.3,7.8,67,2.59,,,0.00,WUHU216HW,2013-04-14 11:20:00,
2013-04-14 07:25:00,40.9,31.2,30.22,North,0,1.3,7.8,68,2.59,,,0.00,WUHU216HW,2013-04-14 11:25:00,
2013-04-14 07:30:00,40.9,31.2,30.23,North,0,1.8,7.6,68,2.59,,,0.00,WUHU216HW,2013-04-14 11:30:00,
2013-04-14 07:35:00,40.9,31.5,30.23,NNW,338,2.9,8.1,69,2.59,,,0.00,WUHU216HW,2013-04-14 11:35:00,
2013-04-14 07:40:00,40.9,31.5,30.24,NNE,23,5.4,8.1,69,2.59,,,0.00,WUHU216HW,2013-04-14 11:40:00,
2013-04-14 07:45:00,40.9,31.5,30.24,North,0,3.4,7.6,69,2.59,,,0.00,WUHU216HW,2013-04-14 11:45:00,
2013-04-14 07:50:00,41.0,31.7,30.24,NNE,23,3.1,6.9,69,2.59,,,0.00,WUHU216HW,2013-04-14 11:50:00,
2013-04-14 07:55:00,41.0,31.7,30.24,North,0,3.4,7.6,69,2.59,,,0.00,WUHU216HW,2013-04-14 11:55:00,
2013-04-14 08:00:00,41.0,31.7,30.24,NNW,338,1.8,7.6,69,2.59,,,0.00,WUHU216HW,2013-04-14 12:00:00,
2013-04-14 08:05:00,41.0,32.0,30.24,NNE,23,4.7,7.2,70,2.59,,,0.00,WUHU216HW,2013-04-14 12:05:00,
2013-04-14 08:10:00,41.0,31.7,30.24,North,0,0.9,7.4,69,2.59,,,0.00,WUHU216HW,2013-04-14 12:10:00,
2013-04-14 08:15:00,41.2,32.2,30.24,North,0,1.8,7.4,70,2.59,,,0.00,WUHU216HW,2013-04-14 12:15:00,
2013-04-14 08:20:00,41.4,32.1,30.24,North,0,1.3,3.4,69,2.59,,,0.00,WUHU216HW,2013-04-14 12:20:00,
2013-04-14 08:25:00,41.4,32.1,30.24,North,0,0.0,3.4,69,2.59,,,0.00,WUHU216HW,2013-04-14 12:25:00,
2013-04-14 08:30:00,41.9,32.1,30.24,North,0,0.0,1.3,68,2.59,,,0.00,WUHU216HW,2013-04-14 12:30:00,
2013-04-14 08:35:00,41.9,32.1,30.24,NNW,338,0.4,0.4,68,2.59,,,0.00,WUHU216HW,2013-04-14 12:35:00,
2013-04-14 08:40:00,41.9,32.1,30.25,NNE,23,3.4,4.9,68,2.59,,,0.00,WUHU216HW,2013-04-14 12:40:00,
2013-04-14 08:45:00,41.9,32.6,30.25,NNW,338,2.2,4.9,69,2.59,,,0.00,WUHU216HW,2013-04-14 12:45:00,
2013-04-14 08:50:00,42.1,32.8,30.25,NNW,338,2.5,5.4,69,2.59,,,0.00,WUHU216HW,2013-04-14 12:50:00,
2013-04-14 08:55:00,42.5,33.1,30.26,NW,315,1.3,5.6,69,2.59,,,0.00,WUHU216HW,2013-04-14 12:55:00,
2013-04-14 09:00:00,42.5,32.7,30.26,WNW,293,2.2,5.6,68,2.59,,,0.00,WUHU216HW,2013-04-14 13:00:00,
2013-04-14 09:05:00,42.8,33.0,30.27,NNW,338,1.8,3.8,68,2.59,,,0.00,WUHU216HW,2013-04-14 13:05:00,
2013-04-14 09:10:00,43.0,33.2,30.26,North,0,6.0,6.0,68,2.59,,,0.00,WUHU216HW,2013-04-14 13:10:00,
2013-04-14 09:15:00,43.0,32.9,30.26,NNW,338,1.3,6.0,67,2.59,,,0.00,WUHU216HW,2013-04-14 13:15:00,
2013-04-14 09:20:00,43.0,33.2,30.26,WNW,293,3.6,6.0,68,2.59,,,0.00,WUHU216HW,2013-04-14 13:20:00,
2013-04-14 09:25:00,43.4,33.6,30.26,NW,315,3.4,4.9,68,2.59,,,0.00,WUHU216HW,2013-04-14 13:25:00,
2013-04-14 09:30:00,43.4,33.6,30.27,North,0,0.7,4.9,68,2.59,,,0.00,WUHU216HW,2013-04-14 13:30:00,
2013-04-14 09:35:00,43.9,33.7,30.27,WNW,293,3.4,3.8,67,2.59,,,0.00,WUHU216HW,2013-04-14 13:35:00,
2013-04-14 09:40:00,44.1,33.5,30.27,NNE,23,4.3,4.3,66,2.59,,,0.00,WUHU216HW,2013-04-14 13:40:00,
2013-04-14 09:45:00,44.5,33.8,30.27,North,0,0.9,4.3,66,2.59,,,0.00,WUHU216HW,2013-04-14 13:45:00,
2013-04-14 09:50:00,44.6,33.9,30.27,NNE,23,5.4,5.4,66,2.59,,,0.00,WUHU216HW,2013-04-14 13:50:00,
2013-04-14 09:55:00,44.6,33.9,30.27,North,0,0.9,5.4,66,2.59,,,0.00,WUHU216HW,2013-04-14 13:55:00,
2013-04-14 10:00:00,44.8,33.8,30.27,West,270,3.4,5.6,65,2.59,,,0.00,WUHU216HW,2013-04-14 14:00:00,
2013-04-14 10:05:00,44.8,33.8,30.27,NNW,338,2.5,5.6,65,2.59,,,0.00,WUHU216HW,2013-04-14 14:05:00,
2013-04-14 10:10:00,45.2,34.5,30.27,NNW,338,2.0,4.0,66,2.59,,,0.00,WUHU216HW,2013-04-14 14:10:00,
2013-04-14 10:15:00,45.7,34.6,30.27,North,0,1.3,4.5,65,2.59,,,0.00,WUHU216HW,2013-04-14 14:15:00,
2013-04-14 10:20:00,45.7,34.6,30.27,North,0,1.8,5.1,65,2.59,,,0.00,WUHU216HW,2013-04-14 14:20:00,
2013-04-14 10:25:00,45.9,34.7,30.27,NNE,23,3.8,5.8,65,2.59,,,0.00,WUHU216HW,2013-04-14 14:25:00,
2013-04-14 10:30:00,46.4,34.9,30.27,North,0,6.9,6.9,64,2.59,,,0.00,WUHU216HW,2013-04-14 14:30:00,
2013-04-14 10:35:00,46.8,34.8,30.27,NNW,338,1.3,6.9,63,2.59,,,0.00,WUHU216HW,2013-04-14 14:35:00,
2013-04-14 10:40:00,47.3,35.0,30.27,WNW,293,2.7,5.8,62,2.59,,,0.00,WUHU216HW,2013-04-14 14:40:00,
2013-04-14 10:45:00,47.3,34.6,30.27,NNE,23,3.6,8.1,61,2.59,,,0.00,WUHU216HW,2013-04-14 14:45:00,
2013-04-14 10:50:00,47.3,34.6,30.27,NNW,338,1.1,8.1,61,2.59,,,0.00,WUHU216HW,2013-04-14 14:50:00,
2013-04-14 10:55:00,47.7,34.9,30.27,North,0,3.4,6.3,61,2.59,,,0.00,WUHU216HW,2013-04-14 14:55:00,
2013-04-14 11:00:00,48.1,35.3,30.27,NW,315,1.1,6.3,61,2.59,,,0.00,WUHU216HW,2013-04-14 15:00:00,
2013-04-14 11:05:00,48.4,35.6,30.27,NNW,338,1.6,3.6,61,2.59,,,0.00,WUHU216HW,2013-04-14 15:05:00,
2013-04-14 11:10:00,48.6,35.5,30.27,North,0,1.3,4.9,60,2.59,,,0.00,WUHU216HW,2013-04-14 15:10:00,
2013-04-14 11:15:00,49.3,36.1,30.27,WNW,293,1.8,6.5,60,2.59,,,0.00,WUHU216HW,2013-04-14 15:15:00,
2013-04-14 11:20:00,49.9,36.5,30.27,North,0,2.5,6.5,60,2.59,,,0.00,WUHU216HW,2013-04-14 15:20:00,
2013-04-14 11:25:00,50.2,36.0,30.28,WNW,293,4.0,4.7,58,2.59,,,0.00,WUHU216HW,2013-04-14 15:25:00,
2013-04-14 11:30:00,50.4,35.7,30.28,WNW,293,1.8,5.4,57,2.59,,,0.00,WUHU216HW,2013-04-14 15:30:00,
2013-04-14 11:35:00,50.8,36.0,30.28,NNW,338,1.3,5.4,57,2.59,,,0.00,WUHU216HW,2013-04-14 15:35:00,
2013-04-14 11:40:00,50.9,35.7,30.27,WNW,293,2.5,4.7,56,2.59,,,0.00,WUHU216HW,2013-04-14 15:40:00,
2013-04-14 11:45:00,51.3,35.7,30.28,NW,315,2.7,5.4,55,2.59,,,0.00,WUHU216HW,2013-04-14 15:45:00,
2013-04-14 11:50:00,51.8,35.6,30.28,WNW,293,1.8,5.4,54,2.59,,,0.00,WUHU216HW,2013-04-14 15:50:00,
2013-04-14 11:55:00,52.0,35.8,30.28,NW,315,1.3,5.4,54,2.59,,,0.00,WUHU216HW,2013-04-14 15:55:00,
2013-04-14 12:00:00,52.0,35.8,30.27,NNW,338,1.1,4.3,54,2.59,,,0.00,WUHU216HW,2013-04-14 16:00:00,
2013-04-14 12:05:00,52.4,35.7,30.27,ESE,113,0.4,4.0,53,2.59,,,0.00,WUHU216HW,2013-04-14 16:05:00,
2013-04-14 12:10:00,52.7,36.0,30.27,West,270,0.9,4.7,53,2.59,,,0.00,WUHU216HW,2013-04-14 16:10:00,
2013-04-14 12:15:00,53.1,35.9,30.27,WSW,248,1.1,4.7,52,2.59,,,0.00,WUHU216HW,2013-04-14 16:15:00,
2013-04-14 12:20:00,53.6,35.9,30.27,NNW,338,1.8,4.3,51,2.59,,,0.00,WUHU216HW,2013-04-14 16:20:00,
2013-04-14 12:25:00,54.0,35.8,30.26,North,0,1.6,5.8,50,2.59,,,0.00,WUHU216HW,2013-04-14 16:25:00,
2013-04-14 12:30:00,54.2,35.4,30.26,NNW,338,0.4,6.3,49,2.59,,,0.00,WUHU216HW,2013-04-14 16:30:00,
2013-04-14 12:35:00,54.4,35.6,30.26,SSE,158,2.5,6.3,49,2.59,,,0.00,WUHU216HW,2013-04-14 16:35:00,
2013-04-14 12:40:00,54.7,36.5,30.26,NW,315,2.2,5.4,50,2.59,,,0.00,WUHU216HW,2013-04-14 16:40:00,
2013-04-14 12:45:00,55.3,36.9,30.26,North,0,1.1,5.6,50,2.59,,,0.00,WUHU216HW,2013-04-14 16:45:00,
2013-04-14 12:50:00,55.6,36.7,30.25,SSW,203,2.2,5.6,49,2.59,,,0.00,WUHU216HW,2013-04-14 16:50:00,
2013-04-14 12:55:00,56.2,37.3,30.25,North,0,2.5,6.5,49,2.59,,,0.00,WUHU216HW,2013-04-14 16:55:00,
2013-04-14 13:00:00,56.2,36.6,30.25,NNW,338,1.6,6.5,48,2.59,,,0.00,WUHU216HW,2013-04-14 17:00:00,
2013-04-14 13:05:00,56.5,37.0,30.25,WSW,248,2.5,4.5,48,2.59,,,0.00,WUHU216HW,2013-04-14 17:05:00,
2013-04-14 13:10:00,56.7,36.1,30.25,NW,315,4.3,4.7,46,2.59,,,0.00,WUHU216HW,2013-04-14 17:10:00,
2013-04-14 13:15:00,57.2,37.2,30.25,NW,315,2.2,4.9,47,2.59,,,0.00,WUHU216HW,2013-04-14 17:15:00,
2013-04-14 13:20:00,58.0,37.8,30.25,WNW,293,1.6,4.9,47,2.59,,,0.00,WUHU216HW,2013-04-14 17:20:00,
2013-04-14 13:25:00,58.7,37.3,30.25,NNW,338,0.4,4.9,45,2.59,,,0.00,WUHU216HW,2013-04-14 17:25:00,
2013-04-14 13:30:00,59.0,37.1,30.25,North,0,0.7,4.9,44,2.59,,,0.00,WUHU216HW,2013-04-14 17:30:00,
2013-04-14 13:35:00,59.2,37.2,30.25,West,270,2.9,3.8,44,2.59,,,0.00,WUHU216HW,2013-04-14 17:35:00,
2013-04-14 13:40:00,59.4,37.4,30.25,North,0,2.0,4.0,44,2.59,,,0.00,WUHU216HW,2013-04-14 17:40:00,
2013-04-14 13:45:00,59.6,36.4,30.25,North,0,1.1,5.4,42,2.59,,,0.00,WUHU216HW,2013-04-14 17:45:00,
2013-04-14 13:50:00,59.4,36.2,30.24,WNW,293,1.8,5.4,42,2.59,,,0.00,WUHU216HW,2013-04-14 17:50:00,
2013-04-14 13:55:00,60.1,36.9,30.24,North,0,3.1,4.0,42,2.59,,,0.00,WUHU216HW,2013-04-14 17:55:00,
2013-04-14 14:00:00,59.9,36.1,30.24,West,270,3.1,4.7,41,2.59,,,0.00,WUHU216HW,2013-04-14 18:00:00,
2013-04-14 14:05:00,59.8,36.5,30.25,WNW,293,2.7,5.8,42,2.59,,,0.00,WUHU216HW,2013-04-14 18:05:00,
2013-04-14 14:10:00,59.9,36.1,30.24,WNW,293,2.5,5.8,41,2.59,,,0.00,WUHU216HW,2013-04-14 18:10:00,
2013-04-14 14:15:00,60.1,36.3,30.25,NNW,338,1.6,4.5,41,2.59,,,0.00,WUHU216HW,2013-04-14 18:15:00,
2013-04-14 14:20:00,60.3,37.6,30.25,NE,45,0.9,4.5,43,2.59,,,0.00,WUHU216HW,2013-04-14 18:20:00,
2013-04-14 14:25:00,60.8,38.1,30.25,NNW,338,4.7,4.7,43,2.59,,,0.00,WUHU216HW,2013-04-14 18:25:00,
2013-04-14 14:30:00,61.2,37.3,30.25,NW,315,1.8,4.7,41,2.59,,,0.00,WUHU216HW,2013-04-14 18:30:00,
2013-04-14 14:35:00,61.7,37.7,30.25,SSW,203,0.4,4.7,41,2.59,,,0.00,WUHU216HW,2013-04-14 18:35:00,
2013-04-14 14:40:00,62.3,38.3,30.24,NW,315,2.0,4.0,41,2.59,,,0.00,WUHU216HW,2013-04-14 18:40:00,
2013-04-14 14:45:00,62.6,37.3,30.24,WNW,293,1.8,4.5,39,2.59,,,0.00,WUHU216HW,2013-04-14 18:45:00,
2013-04-14 14:50:00,62.6,37.3,30.24,West,270,2.7,4.5,39,2.59,,,0.00,WUHU216HW,2013-04-14 18:50:00,
2013-04-14 14:55:00,62.8,38.2,30.24,North,0,1.1,5.1,40,2.59,,,0.00,WUHU216HW,2013-04-14 18:55:00,
2013-04-14 15:00:00,63.0,36.9,30.24,WNW,293,3.4,5.1,38,2.59,,,0.00,WUHU216HW,2013-04-14 19:00:00,
2013-04-14 15:05:00,63.5,38.1,30.24,NNW,338,1.8,6.5,39,2.59,,,0.00,WUHU216HW,2013-04-14 19:05:00,
2013-04-14 15:10:00,63.4,38.6,30.24,SSE,158,1.6,6.5,40,2.59,,,0.00,WUHU216HW,2013-04-14 19:10:00,
2013-04-14 15:15:00,63.4,38.6,30.24,SSW,203,1.6,6.3,40,2.59,,,0.00,WUHU216HW,2013-04-14 19:15:00,
2013-04-14 15:20:00,63.7,39.5,30.24,South,180,3.1,4.9,41,2.59,,,0.00,WUHU216HW,2013-04-14 19:20:00,
2013-04-14 15:25:00,63.9,38.4,30.24,SSE,158,2.0,4.3,39,2.59,,,0.00,WUHU216HW,2013-04-14 19:25:00,
2013-04-14 15:30:00,64.3,39.4,30.23,NW,315,0.7,4.5,40,2.59,,,0.00,WUHU216HW,2013-04-14 19:30:00,
2013-04-14 15:35:00,64.4,38.9,30.23,WSW,248,0.9,4.5,39,2.59,,,0.00,WUHU216HW,2013-04-14 19:35:00,
2013-04-14 15:40:00,64.6,39.1,30.23,SSW,203,1.8,3.8,39,2.59,,,0.00,WUHU216HW,2013-04-14 19:40:00,
2013-04-14 15:45:00,64.6,39.1,30.24,ENE,68,1.1,6.0,39,2.59,,,0.00,WUHU216HW,2013-04-14 19:45:00,
2013-04-14 15:50:00,64.6,39.1,30.24,WSW,248,2.2,6.0,39,2.59,,,0.00,WUHU216HW,2013-04-14 19:50:00,
2013-04-14 15:55:00,64.8,40.0,30.23,West,270,2.2,5.4,40,2.59,,,0.00,WUHU216HW,2013-04-14 19:55:00,
2013-04-14 16:00:00,65.0,38.6,30.23,SSE,158,2.7,5.6,38,2.59,,,0.00,WUHU216HW,2013-04-14 20:00:00,
2013-04-14 16:05:00,65.2,39.5,30.23,SE,135,2.5,6.7,39,2.59,,,0.00,WUHU216HW,2013-04-14 20:05:00,
2013-04-14 16:10:00,65.2,38.8,30.23,WNW,293,2.2,6.7,38,2.59,,,0.00,WUHU216HW,2013-04-14 20:10:00,
2013-04-14 16:15:00,65.0,39.3,30.23,SW,225,2.5,6.5,39,2.59,,,0.00,WUHU216HW,2013-04-14 20:15:00,
2013-04-14 16:21:00,64.8,39.3,30.23,WNW,293,2.9,4.7,39,2.59,,,0.00,WUHU216HW,2013-04-14 20:21:00,
2013-04-14 16:26:00,64.8,39.3,30.23,East,90,2.5,5.6,39,2.59,,,0.00,WUHU216HW,2013-04-14 20:26:00,
2013-04-14 16:31:00,64.6,39.1,30.23,East,90,0.7,5.6,39,2.59,,,0.00,WUHU216HW,2013-04-14 20:31:00,
2013-04-14 16:36:00,64.8,40.0,30.23,ENE,68,2.5,5.1,40,2.59,,,0.00,WUHU216HW,2013-04-14 20:36:00,
2013-04-14 16:41:00,64.4,38.9,30.23,East,90,4.9,5.4,39,2.59,,,0.00,WUHU216HW,2013-04-14 20:41:00,
2013-04-14 16:45:00,64.4,38.9,30.22,SW,225,3.4,5.4,39,2.59,,,0.00,WUHU216HW,2013-04-14 20:45:00,
2013-04-14 16:50:00,64.4,39.6,30.22,SW,225,1.3,5.4,40,2.59,,,0.00,WUHU216HW,2013-04-14 20:50:00,
2013-04-14 16:55:00,64.4,38.9,30.22,SSE,158,8.3,8.3,39,2.59,,,0.00,WUHU216HW,2013-04-14 20:55:00,
2013-04-14 17:00:00,64.4,39.6,30.22,SSE,158,3.1,8.3,40,2.59,,,0.00,WUHU216HW,2013-04-14 21:00:00,
2013-04-14 17:06:00,64.4,39.6,30.22,East,90,1.1,8.3,40,2.59,,,0.00,WUHU216HW,2013-04-14 21:06:00,
2013-04-14 17:11:00,64.3,39.4,30.23,ENE,68,3.8,5.6,40,2.59,,,0.00,WUHU216HW,2013-04-14 21:11:00,
2013-04-14 17:16:00,64.4,39.6,30.23,East,90,1.8,4.7,40,2.59,,,0.00,WUHU216HW,2013-04-14 21:16:00,
2013-04-14 17:20:00,64.4,39.6,30.23,SSW,203,0.9,4.7,40,2.59,,,0.00,WUHU216HW,2013-04-14 21:20:00,
2013-04-14 17:25:00,64.3,39.4,30.23,WNW,293,0.4,4.5,40,2.59,,,0.00,WUHU216HW,2013-04-14 21:25:00,
2013-04-14 17:30:00,64.1,39.9,30.23,NE,45,1.3,4.5,41,2.59,,,0.00,WUHU216HW,2013-04-14 21:30:00,
2013-04-14 17:35:00,64.1,39.9,30.23,SE,135,3.6,4.7,41,2.59,,,0.00,WUHU216HW,2013-04-14 21:35:00,
2013-04-14 17:40:00,64.1,39.9,30.24,ESE,113,2.5,4.7,41,2.59,,,0.00,WUHU216HW,2013-04-14 21:40:00,
2013-04-14 17:45:00,63.7,39.5,30.23,NNE,23,3.8,5.6,41,2.59,,,0.00,WUHU216HW,2013-04-14 21:45:00,
2013-04-14 17:51:00,63.0,38.9,30.24,SSE,158,1.8,5.6,41,2.59,,,0.00,WUHU216HW,2013-04-14 21:51:00,
2013-04-14 17:56:00,62.8,39.3,30.23,SE,135,1.8,5.1,42,2.59,,,0.00,WUHU216HW,2013-04-14 21:56:00,
2013-04-14 18:01:00,63.0,40.1,30.24,SE,135,2.0,4.7,43,2.59,,,0.00,WUHU216HW,2013-04-14 22:01:00,
2013-04-14 18:06:00,62.8,39.9,30.24,ENE,68,0.4,3.8,43,2.59,,,0.00,WUHU216HW,2013-04-14 22:06:00,
2013-04-14 18:11:00,62.6,39.7,30.24,ENE,68,1.8,3.6,43,2.59,,,0.00,WUHU216HW,2013-04-14 22:11:00,
2013-04-14 18:16:00,62.3,39.4,30.24,East,90,2.5,5.6,43,2.59,,,0.00,WUHU216HW,2013-04-14 22:16:00,
2013-04-14 18:21:00,62.3,40.0,30.24,SE,135,2.9,5.6,44,2.59,,,0.00,WUHU216HW,2013-04-14 22:21:00,
2013-04-14 18:26:00,62.1,39.8,30.24,ESE,113,1.8,5.4,44,2.59,,,0.00,WUHU216HW,2013-04-14 22:26:00,
2013-04-14 18:31:00,62.1,39.8,30.24,East,90,3.4,3.8,44,2.59,,,0.00,WUHU216HW,2013-04-14 22:31:00,
2013-04-14 18:36:00,61.9,39.6,30.24,East,90,2.5,3.8,44,2.59,,,0.00,WUHU216HW,2013-04-14 22:36:00,
2013-04-14 18:41:00,61.6,39.3,30.24,ENE,68,0.7,4.7,44,2.59,,,0.00,WUHU216HW,2013-04-14 22:41:00,
2013-04-14 18:46:00,61.2,39.0,30.24,ESE,113,1.6,4.7,44,2.59,,,0.00,WUHU216HW,2013-04-14 22:46:00,
2013-04-14 18:51:00,61.0,39.4,30.25,SE,135,0.9,3.8,45,2.59,,,0.00,WUHU216HW,2013-04-14 22:51:00,
2013-04-14 18:56:00,60.8,39.2,30.25,ESE,113,0.7,3.8,45,2.59,,,0.00,WUHU216HW,2013-04-14 22:56:00,
2013-04-14 19:01:00,60.8,39.2,30.24,South,180,2.7,3.6,45,2.59,,,0.00,WUHU216HW,2013-04-14 23:01:00,
2013-04-14 19:06:00,60.5,39.5,30.25,ESE,113,5.1,5.4,46,2.59,,,0.00,WUHU216HW,2013-04-14 23:06:00,
2013-04-14 19:12:00,60.1,39.2,30.24,SE,135,3.4,5.4,46,2.59,,,0.00,WUHU216HW,2013-04-14 23:12:00,
2013-04-14 19:17:00,60.1,39.2,30.24,ENE,68,2.5,4.9,46,2.59,,,0.00,WUHU216HW,2013-04-14 23:17:00,
2013-04-14 19:22:00,59.8,39.4,30.24,SE,135,2.7,4.5,47,2.59,,,0.00,WUHU216HW,2013-04-14 23:22:00,
2013-04-14 19:27:00,59.4,39.1,30.24,ESE,113,2.7,6.0,47,2.59,,,0.00,WUHU216HW,2013-04-14 23:27:00,
2013-04-14 19:32:00,59.0,38.8,30.24,SSE,158,2.9,6.0,47,2.59,,,0.00,WUHU216HW,2013-04-14 23:32:00,
2013-04-14 19:37:00,58.9,39.2,30.24,NE,45,2.5,3.6,48,2.59,,,0.00,WUHU216HW,2013-04-14 23:37:00,
2013-04-14 19:42:00,58.7,39.1,30.24,ENE,68,1.1,3.6,48,2.59,,,0.00,WUHU216HW,2013-04-14 23:42:00,
2013-04-14 19:47:00,58.7,39.1,30.25,ENE,68,3.4,3.6,48,2.59,,,0.00,WUHU216HW,2013-04-14 23:47:00,
2013-04-14 19:52:00,58.3,39.2,30.25,SE,135,1.3,4.3,49,2.59,,,0.00,WUHU216HW,2013-04-14 23:52:00,
2013-04-14 19:57:00,58.0,39.0,30.24,ESE,113,2.5,4.7,49,2.59,,,0.00,WUHU216HW,2013-04-14 23:57:00,
2013-04-14 20:02:00,57.4,39.1,30.24,ESE,113,4.5,6.0,50,2.59,,,0.00,WUHU216HW,2013-04-15 00:02:00,
2013-04-14 20:07:00,57.2,38.9,30.24,ESE,113,2.9,7.6,50,2.59,,,0.00,WUHU216HW,2013-04-15 00:07:00,
2013-04-14 20:12:00,56.9,38.5,30.24,East,90,2.5,7.6,50,2.59,,,0.00,WUHU216HW,2013-04-15 00:12:00,
2013-04-14 20:17:00,56.7,38.8,30.24,SE,135,3.4,6.3,51,2.59,,,0.00,WUHU216HW,2013-04-15 00:17:00,
2013-04-14 20:22:00,56.5,38.6,30.24,NNE,23,2.0,6.3,51,2.59,,,0.00,WUHU216HW,2013-04-15 00:22:00,
2013-04-14 20:27:00,56.5,38.6,30.24,ESE,113,2.5,5.4,51,2.59,,,0.00,WUHU216HW,2013-04-15 00:27:00,
2013-04-14 20:32:00,56.3,38.4,30.24,ESE,113,2.5,6.3,51,2.59,,,0.00,WUHU216HW,2013-04-15 00:32:00,
2013-04-14 20:37:00,56.2,38.3,30.24,East,90,1.6,6.3,51,2.59,,,0.00,WUHU216HW,2013-04-15 00:37:00,
2013-04-14 20:42:00,56.2,37.8,30.25,North,0,3.4,7.2,50,2.59,,,0.00,WUHU216HW,2013-04-15 00:42:00,
2013-04-14 20:47:00,56.0,38.1,30.25,ENE,68,2.2,7.2,51,2.59,,,0.00,WUHU216HW,2013-04-15 00:47:00,
2013-04-14 20:52:00,55.8,37.9,30.25,SSE,158,3.8,7.6,51,2.59,,,0.00,WUHU216HW,2013-04-15 00:52:00,
2013-04-14 20:57:00,55.8,37.9,30.25,ESE,113,2.0,7.6,51,2.59,,,0.00,WUHU216HW,2013-04-15 00:57:00,
2013-04-14 21:02:00,55.8,37.9,30.25,NE,45,2.2,5.6,51,2.59,,,0.00,WUHU216HW,2013-04-15 01:02:00,
2013-04-14 21:07:00,55.8,37.4,30.25,ESE,113,3.4,4.7,50,2.59,,,0.00,WUHU216HW,2013-04-15 01:07:00,
2013-04-14 21:12:00,55.6,37.3,30.25,SE,135,3.4,5.4,50,2.59,,,0.00,WUHU216HW,2013-04-15 01:12:00,
2013-04-14 21:17:00,55.4,37.1,30.26,East,90,3.1,5.8,50,2.59,,,0.00,WUHU216HW,2013-04-15 01:17:00,
2013-04-14 21:22:00,55.3,37.4,30.26,NNE,23,3.4,7.4,51,2.59,,,0.00,WUHU216HW,2013-04-15 01:22:00,
2013-04-14 21:27:00,55.1,37.3,30.26,SE,135,5.4,7.4,51,2.59,,,0.00,WUHU216HW,2013-04-15 01:27:00,
2013-04-14 21:32:00,55.1,36.7,30.26,SE,135,3.8,6.3,50,2.59,,,0.00,WUHU216HW,2013-04-15 01:32:00,
2013-04-14 21:37:00,55.1,36.7,30.26,ESE,113,1.8,6.3,50,2.59,,,0.00,WUHU216HW,2013-04-15 01:37:00,
2013-04-14 21:42:00,54.9,36.6,30.25,SE,135,3.4,6.3,50,2.59,,,0.00,WUHU216HW,2013-04-15 01:42:00,
2013-04-14 21:47:00,54.7,36.9,30.25,East,90,9.8,9.8,51,2.59,,,0.00,WUHU216HW,2013-04-15 01:47:00,
2013-04-14 21:52:00,54.7,36.9,30.25,NE,45,0.7,9.8,51,2.59,,,0.00,WUHU216HW,2013-04-15 01:52:00,
2013-04-14 21:57:00,54.7,36.9,30.25,ENE,68,5.6,9.8,51,2.59,,,0.00,WUHU216HW,2013-04-15 01:57:00,
2013-04-14 22:02:00,54.7,36.9,30.25,East,90,5.8,8.5,51,2.59,,,0.00,WUHU216HW,2013-04-15 02:02:00,
2013-04-14 22:07:00,54.7,36.9,30.25,NE,45,2.0,8.5,51,2.59,,,0.00,WUHU216HW,2013-04-15 02:07:00,
2013-04-14 22:12:00,54.9,37.1,30.25,ENE,68,3.4,7.8,51,2.59,,,0.00,WUHU216HW,2013-04-15 02:12:00,
2013-04-14 22:17:00,55.1,36.7,30.25,SE,135,4.0,7.6,50,2.59,,,0.00,WUHU216HW,2013-04-15 02:17:00,
2013-04-14 22:22:00,55.1,36.7,30.24,SSE,158,3.4,8.9,50,2.59,,,0.00,WUHU216HW,2013-04-15 02:22:00,
2013-04-14 22:27:00,54.9,36.6,30.24,ESE,113,4.7,10.1,50,2.59,,,0.00,WUHU216HW,2013-04-15 02:27:00,
2013-04-14 22:32:00,54.7,36.9,30.25,SSW,203,6.0,10.1,51,2.59,,,0.00,WUHU216HW,2013-04-15 02:32:00,
2013-04-14 22:37:00,54.5,36.7,30.25,SSW,203,1.8,8.7,51,2.59,,,0.00,WUHU216HW,2013-04-15 02:37:00,
2013-04-14 22:42:00,54.4,36.5,30.25,ENE,68,3.4,8.7,51,2.59,,,0.00,WUHU216HW,2013-04-15 02:42:00,
2013-04-14 22:47:00,54.4,37.1,30.24,ESE,113,7.6,8.5,52,2.59,,,0.00,WUHU216HW,2013-04-15 02:47:00,
2013-04-14 22:52:00,54.2,37.4,30.25,East,90,3.1,8.5,53,2.59,,,0.00,WUHU216HW,2013-04-15 02:52:00,
2013-04-14 22:57:00,54.2,37.4,30.25,SE,135,9.2,10.5,53,2.59,,,0.00,WUHU216HW,2013-04-15 02:57:00,
2013-04-14 23:02:00,54.0,37.2,30.24,SE,135,3.1,10.5,53,2.59,,,0.00,WUHU216HW,2013-04-15 03:02:00,
2013-04-14 23:07:00,54.0,37.2,30.24,NE,45,2.9,9.8,53,2.59,,,0.00,WUHU216HW,2013-04-15 03:07:00,
2013-04-14 23:12:00,53.8,37.0,30.24,SSE,158,5.4,8.3,53,2.59,,,0.00,WUHU216HW,2013-04-15 03:12:00,
2013-04-14 23:17:00,53.8,37.0,30.24,SE,135,3.6,12.1,53,2.59,,,0.00,WUHU216HW,2013-04-15 03:17:00,
2013-04-14 23:22:00,53.6,37.4,30.24,NE,45,4.0,12.1,54,2.59,,,0.00,WUHU216HW,2013-04-15 03:22:00,
2013-04-14 23:27:00,53.6,37.4,30.24,SE,135,7.2,11.9,54,2.59,,,0.00,WUHU216HW,2013-04-15 03:27:00,
2013-04-14 23:32:00,53.6,37.4,30.24,SE,135,8.3,11.9,54,2.59,,,0.00,WUHU216HW,2013-04-15 03:32:00,
2013-04-14 23:37:00,53.6,37.8,30.24,ESE,113,3.4,8.3,55,2.59,,,0.00,WUHU216HW,2013-04-15 03:37:00,
2013-04-14 23:42:00,53.3,37.4,30.24,WSW,248,2.7,11.4,55,2.59,,,0.00,WUHU216HW,2013-04-15 03:42:00,
2013-04-14 23:47:00,53.3,37.9,30.24,ESE,113,5.4,11.4,56,2.59,,,0.00,WUHU216HW,2013-04-15 03:47:00,
2013-04-14 23:53:00,52.9,37.6,30.24,SE,135,3.8,7.8,56,2.59,,,0.00,WUHU216HW,2013-04-15 03:53:00,
2013-04-14 23:58:00,52.9,38.1,30.24,SSE,158,4.9,7.8,57,2.59,,,0.00,WUHU216HW,2013-04-15 03:58:00,